Probability
0 0 0 0 0 0 0 0 0 16 23 26 29 29 16 13 13 13 3 0 0 0 0 0 0 0 0 0 0 0 0 0 0 0 0 0 0 0 0 0 0 0 0
0 0 0 0 0 0 0 0 0 6 23 29 35 42 42 13 16 10 6 0 0 0 0 0 0 0 0 0 0 0 0 0 0 0 0 0 0 0 0 0 0 0 0
0 0 0 0 0 0 0 0 0 0 10 19 16 3 3 3 3 3 3 3 0 0 0 0 0 0 0 0 0 0 0 0 0 0 0 0 0 0 0 0 0 0 0
0 0 0 0 0 0 0 0 0 0 3 3 6 3 0 3 3 3 3 3 0 0 0 0 0 0 0 0 0 0 0 0 0 0 0 0 0 0 0 0 0 0 0
0 0 0 0 0 0 0 0 0 0 0 3 3 3 3 3 3 0 0 0 0 0 0 0 0 0 0 0 0 0 0 0 0 0 0 0 0 0 0 0 0 0 0
0 0 0 0 0 0 0 0 0 0 0 0 3 0 3 0 0 0 0 0 0 0 0 0 0 0 0 0 0 0 0 0 0 0 0 0 0 0 0 0 0 0 0
0 0 0 0 0 0 0 0 0 0 0 0 0 0 0 0 0 0 0 0 0 0 0 0 0 0 0 0 0 0 0 0 0 0 0 0 0 0 0 0 0 0 0
0 0 0 0 0 0 0 0 0 0 0 0 0 0 0 0 0 0 0 0 0 0 0 0 0 0 0 0 0 0 0 0 0 0 0 0 0 0 0 0 0 0 0
0 0 0 0 0 0 0 0 0 0 0 0 0 0 0 0 0 0 0 0 0 0 0 0 0 0 0 0 0 0 0 0 0 0 0 0 0 0 0 0 0 0 0
0 0 0 0 0 0 0 0 0 0 0 0 0 0 0 0 0 0 0 0 0 0 0 0 0 0 0 0 0 0 0 0 0 0 0 0 0 0 0 0 0 0 0
0 0 0 0 0 0 0 0 0 0 0 0 0 0 0 0 0 0 0 0 0 0 0 0 0 0 0 0 0 0 0 0 0 0 0 0 0 0 0 0 0 0 0
0 0 0 0 0 0 0 0 0 0 0 0 0 0 0 0 0 0 0 0 0 0 0 0 0 0 0 0 0 0 0 0 0 0 0 0 0 0 0 0 0 0 0
0 0 0 0 0 0 0 0 0 0 0 0 0 0 0 0 0 0 0 0 0 0 0 0 0 0 0 0 0 0 0 0 0 0 0 0 0 0 0 0 0 0 0
0 0 0 0 0 0 0 0 0 0 0 0 0 0 0 0 0 0 0 0 0 0 0 0 0 0 0 0 0 0 0 0 0 0 0 0 0 0 0 0 0 0 0
0 0 0 0 0 0 0 0 0 0 0 0 0 0 0 0 0 0 0 0 0 0 0 0 0 0 0 0 0 0 0 0 0 0 0 0 0 0 0 0 0 0 0
0 0 0 0 0 0 0 0 0 0 0 0 0 0 0 0 0 0 0 0 0 0 0 0 0 0 0 0 0 0 0 0 0 0 0 0 0 0 0 0 0 0 0
0 0 0 0 0 0 0 0 0 0 0 0 0 0 0 0 0 0 0 0 0 0 0 0 0 0 0 0 0 0 0 0 0 0 0 0 0 0 0 0 0 0 0
0 0 0 0 0 0 0 0 0 0 0 0 0 0 0 0 0 0 0 0 0 0 0 0 0 0 0 0 0 0 0 0 0 0 0 0 0 0 0 0 0 0 0
0 0 0 0 0 0 0 0 0 0 0 0 0 0 0 0 0 0 0 0 0 0 0 0 0 0 0 0 0 0 0 0 0 0 0 0 0 0 0 0 0 0 0
0 0 0 0 0 0 0 0 0 0 0 0 0 0 0 0 0 0 0 0 0 0 0 0 0 0 0 0 0 0 0 0 0 0 0 0 0 0 0 0 0 0 0
0 0 0 0 0 0 0 0 0 0 0 0 0 0 0 0 0 0 0 0 0 0 0 0 0 0 0 0 0 0 0 0 0 0 0 0 0 0 0 0 0 0 0
0 0 0 0 0 0 0 0 0 0 0 0 0 0 0 0 0 0 0 0 0 0 0 0 0 0 0 0 0 0 0 0 0 0 0 0 0 0 0 0 0 0 0
0 0 0 0 0 0 0 0 0 0 0 0 0 0 0 0 0 0 0 0 0 0 0 0 0 0 0 0 0 0 0 0 0 0 0 0 0 0 0 0 0 0 0
0 0 0 0 0 0 0 0 0 0 0 0 0 0 0 0 0 0 0 0 0 0 0 0 0 0 0 0 0 0 0 0 0 0 0 0 0 0 0 0 0 0 0
0 0 0 0 0 0 0 0 0 0 0 0 0 0 0 0 0 0 0 0 0 0 0 0 0 0 0 0 0 0 0 0 0 0 0 0 0 0 0 0 0 0 0
0 0 0 0 0 0 0 0 0 0 0 0 0 0 0 0 0 0 0 0 0 0 0 0 0 0 0 0 0 0 0 0 0 0 0 0 0 0 0 0 0 0 0
Height
5755 5757 5759 5761 5763 5765 5766 5767 5769 5770 5771 5772 5773 5773 5774 5775 5775 5776 5776 5777 5777 5777 5777 5777 5777 5777 5776 5776 5775 5774 5772 5771 5769 5767 5765 5763 5761 5759 5757 5755 5753 5751 5749
5747 5749 5750 5752 5754 5756 5757 5758 5760 5760 5761 5763 5764 5764 5765 5765 5766 5767 5768 5769 5769 5769 5769 5769 5769 5769 5768 5768 5767 5766 5764 5763 5761 5759 5757 5755 5754 5750 5748 5746 5743 5741 5739
5739 5740 5741 5743 5744 5746 5747 5748 5749 5750 5752 5753 5754 5754 5754 5755 5757 5758 5760 5760 5760 5759 5760 5760 5760 5760 5760 5760 5759 5758 5756 5755 5753 5751 5749 5747 5745 5742 5740 5737 5734 5731 5729
5729 5731 5732 5733 5734 5735 5736 5737 5738 5739 5740 5741 5742 5743 5744 5746 5748 5748 5749 5749 5749 5750 5750 5751 5752 5752 5751 5751 5750 5749 5748 5746 5745 5743 5740 5738 5736 5734 5731 5729 5725 5722 5719
5720 5721 5721 5722 5723 5723 5724 5724 5725 5726 5727 5728 5730 5732 5733 5735 5736 5737 5738 5739 5739 5740 5741 5742 5742 5742 5742 5742 5741 5740 5739 5738 5736 5734 5731 5729 5726 5724 5721 5719 5716 5712 5708
5710 5710 5710 5710 5710 5710 5710 5710 5710 5712 5712 5714 5716 5718 5720 5722 5723 5725 5726 5727 5728 5729 5731 5732 5733 5733 5733 5733 5732 5731 5730 5729 5727 5725 5722 5720 5717 5714 5711 5709 5705 5702 5697
5699 5699 5698 5697 5696 5695 5695 5694 5695 5696 5696 5698 5700 5703 5705 5708 5710 5712 5713 5715 5717 5719 5720 5721 5723 5723 5724 5724 5723 5722 5721 5719 5717 5715 5712 5710 5707 5704 5701 5698 5694 5691 5687
5687 5686 5684 5683 5681 5679 5678 5678 5678 5679 5680 5682 5684 5687 5689 5692 5695 5698 5701 5703 5705 5708 5710 5711 5713 5714 5714 5714 5714 5713 5711 5710 5708 5705 5703 5700 5696 5693 5689 5686 5682 5678 5675
5674 5672 5669 5667 5665 5663 5661 5660 5660 5662 5663 5665 5668 5671 5674 5677 5680 5684 5687 5690 5693 5696 5698 5701 5702 5704 5704 5704 5704 5703 5702 5700 5698 5695 5693 5689 5686 5682 5677 5673 5668 5664 5660
5660 5657 5654 5650 5647 5645 5643 5641 5641 5643 5645 5648 5651 5655 5659 5662 5666 5669 5674 5678 5681 5684 5687 5690 5692 5694 5695 5695 5694 5693 5692 5690 5688 5685 5682 5678 5674 5669 5665 5660 5654 5649 5644
5646 5642 5637 5632 5628 5625 5623 5621 5621 5622 5626 5629 5634 5639 5643 5647 5651 5656 5661 5666 5670 5674 5677 5680 5682 5684 5685 5685 5684 5683 5682 5680 5678 5674 5671 5666 5662 5657 5651 5646 5640 5634 5628
5633 5626 5620 5614 5609 5605 5602 5600 5600 5602 5606 5611 5616 5622 5628 5633 5638 5643 5649 5654 5659 5663 5667 5670 5673 5675 5676 5676 5675 5674 5672 5670 5667 5663 5659 5654 5649 5644 5638 5632 5626 5619 5613
5620 5613 5604 5597 5590 5585 5582 5581 5581 5584 5588 5594 5600 5607 5614 5620 5627 5632 5638 5644 5650 5654 5658 5661 5664 5666 5667 5666 5666 5664 5662 5659 5656 5652 5647 5642 5636 5630 5624 5618 5611 5604 5596
5609 5600 5592 5583 5576 5570 5567 5565 5567 5569 5574 5581 5588 5595 5603 5610 5617 5624 5630 5636 5642 5646 5650 5654 5656 5658 5658 5658 5657 5654 5651 5648 5644 5640 5634 5629 5623 5616 5610 5603 5595 5587 5579
5600 5591 5583 5575 5567 5561 5557 5556 5557 5560 5565 5571 5578 5586 5594 5602 5609 5617 5623 5630 5635 5640 5643 5646 5648 5649 5649 5648 5647 5644 5641 5637 5632 5627 5621 5615 5609 5602 5594 5587 5579 5571 5562
5594 5586 5578 5570 5562 5557 5553 5552 5552 5555 5560 5566 5573 5581 5589 5597 5605 5612 5619 5624 5629 5634 5637 5639 5641 5641 5640 5639 5637 5634 5630 5625 5620 5614 5608 5601 5594 5587 5579 5570 5561 5552 5542
5591 5583 5575 5568 5562 5557 5554 5552 5553 5555 5559 5565 5571 5579 5586 5594 5602 5609 5615 5620 5625 5628 5631 5632 5633 5633 5631 5629 5627 5623 5619 5613 5607 5601 5595 5588 5579 5571 5563 5554 5544 5534 5522
5590 5583 5576 5570 5564 5560 5557 5555 5556 5558 5561 5566 5572 5579 5586 5594 5601 5606 5612 5616 5620 5623 5624 5625 5625 5624 5623 5620 5617 5612 5607 5601 5594 5588 5581 5573 5564 5555 5547 5538 5528 5516 5504
5591 5585 5579 5573 5568 5565 5563 5561 5561 5563 5566 5570 5576 5581 5587 5594 5600 5605 5609 5612 5615 5617 5618 5618 5617 5616 5613 5610 5606 5601 5595 5588 5581 5574 5566 5558 5549 5540 5530 5521 5511 5499 5485
5592 5587 5582 5578 5574 5571 5569 5568 5568 5570 5572 5576 5580 5584 5589 5594 5599 5603 5606 5608 5610 5611 5611 5611 5609 5607 5604 5600 5595 5589 5583 5576 5568 5560 5551 5542 5532 5522 5511 5501 5491 5480 5467
5594 5590 5586 5583 5580 5577 5576 5575 5575 5577 5579 5581 5585 5588 5592 5595 5598 5601 5603 5605 5605 5605 5605 5603 5601 5597 5593 5589 5583 5577 5570 5563 5555 5546 5536 5526 5516 5505 5494 5482 5471 5459 5448
5595 5592 5590 5587 5585 5583 5582 5581 5581 5582 5583 5585 5588 5591 5593 5595 5597 5599 5600 5600 5600 5599 5597 5595 5591 5587 5583 5577 5571 5564 5557 5549 5541 5532 5522 5511 5500 5488 5475 5463 5451 5440 5429
5597 5594 5592 5590 5588 5587 5586 5586 5586 5586 5588 5589 5591 5592 5594 5595 5595 5596 5596 5595 5594 5592 5589 5586 5582 5577 5572 5566 5559 5552 5544 5535 5527 5517 5506 5494 5482 5470 5457 5445 5434 5423 5414
5597 5595 5594 5592 5591 5590 5589 5589 5589 5589 5590 5591 5591 5592 5592 5592 5592 5592 5591 5589 5587 5584 5581 5577 5572 5567 5561 5555 5548 5540 5531 5522 5512 5501 5489 5476 5464 5452 5440 5429 5419 5411 5403
5597 5596 5595 5594 5593 5592 5591 5590 5590 5590 5590 5590 5590 5590 5590 5589 5588 5587 5585 5583 5580 5576 5572 5568 5563 5557 5551 5544 5537 5528 5519 5509 5497 5485 5472 5459 5447 5435 5425 5416 5409 5402 5395
5597 5596 5595 5594 5593 5592 5592 5591 5591 5590 5590 5589 5588 5587 5586 5585 5583 5581 5579 5575 5572 5568 5564 5559 5554 5548 5541 5534 5525 5515 5505 5493 5481 5468 5456 5444 5433 5424 5415 5408 5402 5396 5389
Wind_Speed
35 36 36 35 36 36 36 36 35 35 35 35 36 36 36 37 37 37 37 37 36 36 36 35 35 34 34 34 35 35 35 36 36 36 37 37 38 39 40 40 42 43 43
37 37 38 38 38 38 39 39 39 39 39 39 39 40 40 40 41 40 39 39 38 38 38 37 36 35 35 35 35 36 36 36 36 36 37 38 38 39 41 42 43 43 44
39 40 40 41 41 41 42 43 43 43 43 43 43 43 44 43 42 42 41 41 41 41 41 39 37 37 36 36 36 36 36 36 36 37 38 39 39 40 40 42 43 43 44
40 41 42 43 44 45 46 46 47 47 47 48 47 47 46 45 45 44 44 45 44 44 43 41 39 38 37 37 37 37 37 37 37 38 39 40 40 40 40 41 42 43 45
41 42 43 45 47 48 49 50 51 52 52 52 51 51 50 49 48 48 48 47 47 46 44 43 41 40 39 38 38 37 38 38 38 39 40 40 41 41 42 42 44 45 46
42 45 47 49 50 52 53 54 55 55 56 56 56 55 54 52 51 50 50 49 49 48 46 45 44 43 41 40 39 38 38 39 40 40 41 42 42 43 43 44 44 46 47
45 47 49 51 52 54 55 56 57 57 57 58 58 58 56 55 53 52 51 51 50 49 48 47 46 45 43 41 40 39 39 40 41 42 42 43 43 44 45 46 47 48 48
46 48 49 51 53 54 56 57 57 58 58 58 58 58 58 56 54 54 53 52 51 50 49 48 47 46 44 42 41 40 41 42 43 43 43 44 45 46 47 49 51 51 51
44 46 49 51 53 55 56 57 58 58 58 58 57 57 57 56 54 53 53 53 52 51 50 48 47 46 45 43 42 41 42 43 43 44 45 46 47 49 51 52 54 55 56
44 47 50 52 54 56 56 57 57 57 57 57 57 56 55 55 54 52 52 52 51 50 49 48 48 47 45 43 43 42 43 43 44 45 46 47 49 52 54 56 57 59 60
44 47 50 52 54 54 55 55 55 55 54 55 55 55 54 53 52 52 51 50 50 49 48 47 47 46 44 43 42 42 43 44 46 46 48 49 52 54 56 58 60 62 64
43 46 48 50 51 51 51 51 51 51 51 51 52 53 52 52 51 50 49 49 48 47 46 45 45 43 42 42 41 42 43 45 46 47 49 52 54 57 59 61 63 65 67
40 43 44 45 46 46 45 44 44 45 47 47 48 49 49 49 48 46 46 47 45 44 43 43 42 41 40 40 41 42 44 45 48 49 52 55 57 60 62 64 65 67 68
37 39 38 38 38 36 34 33 34 36 38 40 41 44 45 45 44 43 42 42 41 40 39 39 38 37 37 38 41 42 44 47 49 52 56 58 60 62 64 65 67 68 70
33 33 32 31 29 26 23 23 24 27 30 33 35 38 39 40 39 38 37 37 36 35 35 35 35 34 36 38 41 44 46 48 51 55 59 61 62 64 66 67 69 70 72
28 27 25 23 21 17 14 14 16 19 23 26 29 32 34 34 35 34 33 32 31 30 30 30 30 32 35 38 41 44 48 51 55 58 60 62 64 66 67 69 71 72 74
24 22 19 16 12 8 4 5 9 14 17 20 23 26 27 28 29 29 27 26 25 26 27 28 29 33 37 40 44 47 50 53 56 59 61 63 65 67 68 70 71 74 76
19 18 16 12 8 5 3 6 9 13 16 19 20 22 24 25 25 24 24 23 23 25 27 29 31 35 39 42 46 49 52 55 58 60 62 64 66 68 69 70 72 75 77
15 14 12 10 8 7 7 9 11 14 16 19 20 21 22 22 21 20 20 21 22 23 26 29 33 36 40 44 47 50 53 55 58 60 63 65 66 68 69 71 74 76 79
12 12 11 10 10 10 10 11 13 14 15 17 17 18 18 18 17 17 19 20 22 24 27 31 35 38 41 45 48 50 53 56 58 61 62 65 67 69 72 74 76 78 79
9 10 9 10 11 11 12 13 13 13 13 14 14 15 14 13 13 14 17 20 23 26 29 33 36 39 42 45 49 51 54 56 57 60 62 65 68 72 75 77 77 77 76
7 6 7 8 8 8 9 10 10 11 11 11 11 10 11 12 14 16 18 21 24 27 30 34 37 40 43 46 49 52 54 56 58 61 64 68 71 74 76 76 76 73 68
6 5 5 6 6 7 6 6 6 6 6 7 7 8 9 11 13 16 18 21 25 28 31 34 38 41 44 47 49 52 54 57 60 63 67 71 73 74 74 73 68 61 54
5 4 3 4 4 4 4 3 2 3 2 3 4 6 9 11 14 17 20 23 26 29 33 36 39 42 44 46 49 53 56 59 63 67 70 72 72 72 68 62 54 47 41
5 4 3 3 3 3 2 2 1 1 3 4 7 9 11 14 17 20 23 25 29 31 34 37 39 41 44 47 51 54 58 62 66 68 70 70 67 62 55 47 40 36 35
5 5 4 4 4 3 3 3 4 5 6 8 11 13 15 18 20 23 25 28 30 32 34 37 40 42 46 49 53 57 61 65 66 66 66 62 56 48 42 36 33 32 33
Wind_Direction
243 244 244 245 246 248 250 252 254 255 257 258 261 263 263 263 262 263 264 266 267 269 270 271 272 274 276 278 279 281 282 284 285 286 286 286 286 285 284 283 283 283 283
244 246 247 248 249 251 252 254 255 257 258 259 260 261 261 262 263 263 265 266 267 268 268 270 271 272 274 276 279 281 282 284 285 286 286 286 288 288 286 285 285 286 286
246 247 249 251 252 254 255 256 257 258 259 260 260 260 262 263 264 264 264 264 264 264 266 268 270 271 273 275 278 280 282 284 285 285 287 288 288 288 288 287 286 287 287
249 250 253 254 256 257 258 258 259 259 259 260 260 261 262 263 263 262 261 261 261 262 264 266 268 270 272 274 277 280 282 284 285 285 287 287 287 288 288 288 288 289 290
254 256 258 259 260 261 261 261 261 260 260 260 260 260 260 261 261 261 260 260 261 261 262 264 266 268 270 273 277 280 282 284 285 286 287 287 288 288 289 290 290 291 292
258 260 261 262 263 263 263 262 261 261 260 260 259 259 259 259 259 259 258 258 258 259 260 261 263 266 269 272 275 279 281 283 285 286 287 289 289 290 290 290 291 293 293
262 263 264 265 265 264 263 262 261 260 259 258 257 257 257 257 256 255 256 256 256 257 258 259 262 265 268 271 274 277 280 283 285 286 288 289 291 291 291 292 292 293 292
268 268 268 267 267 265 264 262 260 259 258 257 256 255 255 254 254 252 253 253 254 254 255 257 260 264 267 269 272 276 279 281 284 286 287 290 291 292 292 293 293 293 293
274 273 272 270 268 267 265 264 262 259 257 256 254 254 253 253 252 250 249 250 251 252 253 255 257 261 265 268 272 275 278 281 283 286 288 290 292 293 294 294 294 294 294
279 278 276 274 272 270 268 265 262 259 256 253 251 250 249 249 249 248 247 247 248 249 251 253 255 259 263 267 270 273 277 280 284 287 289 291 292 293 294 294 295 295 295
285 285 283 280 277 273 270 266 262 258 254 251 248 246 245 245 245 245 244 244 245 246 249 251 254 258 262 266 270 273 278 282 285 287 290 292 292 293 293 294 295 296 296
292 291 289 286 282 278 273 268 262 257 252 248 244 242 241 240 241 241 241 241 242 244 247 250 253 257 261 266 270 274 278 282 285 288 290 291 292 293 294 295 295 296 297
298 298 295 292 288 283 276 268 260 254 248 243 239 237 236 236 236 236 237 238 239 242 245 249 253 257 262 266 270 275 279 282 285 288 290 291 293 293 294 295 296 297 298
306 306 303 299 294 287 278 267 258 249 243 237 234 232 231 230 230 231 233 235 237 240 244 249 253 258 263 268 272 277 280 283 286 288 290 291 293 294 295 296 297 298 298
315 313 311 307 301 292 279 264 251 240 234 229 227 225 223 223 224 226 229 232 235 239 244 249 255 261 266 271 275 278 281 283 285 288 290 291 293 295 296 297 298 299 299
325 324 320 316 311 302 282 257 239 227 220 217 215 215 217 217 218 221 225 228 233 240 245 251 258 265 269 273 277 280 282 284 286 289 291 293 295 297 298 299 300 300 300
337 337 333 331 331 321 289 227 203 194 193 195 199 203 206 208 211 213 219 225 231 239 246 253 259 266 271 276 279 280 283 286 289 291 293 295 297 299 300 301 301 302 302
345 349 351 353 1 21 96 145 162 167 171 177 181 186 192 198 204 209 216 223 232 242 249 255 261 268 274 278 282 284 287 290 292 294 296 298 299 300 301 302 302 303 303
357 4 15 29 46 70 98 118 133 146 155 161 168 175 183 189 196 205 216 226 236 246 256 264 269 274 279 282 285 288 290 293 296 297 299 300 301 302 303 303 304 304 305
9 22 38 55 70 83 100 112 122 132 143 153 163 173 179 186 198 212 224 237 247 256 262 269 275 278 282 286 289 292 295 298 299 301 302 303 304 304 304 305 305 305 306
15 32 48 60 71 84 98 108 117 126 137 149 159 168 179 193 211 226 237 247 256 263 270 275 279 284 288 292 295 297 299 301 302 303 304 305 305 305 305 306 306 307 307
9 28 46 59 68 81 99 113 119 129 141 154 167 181 200 217 229 243 255 263 270 274 279 283 287 291 294 297 299 301 303 304 305 305 306 306 307 307 307 307 308 309 309
6 20 42 53 61 71 90 111 121 136 154 173 192 211 231 247 255 261 270 276 280 284 288 292 295 298 300 301 303 305 306 307 307 307 308 308 308 308 309 309 310 311 312
354 8 28 39 48 59 71 91 112 135 171 218 242 257 265 271 276 281 285 288 291 294 297 299 301 303 304 305 307 308 309 309 310 310 310 310 310 310 311 312 313 314 315
324 335 351 4 4 3 11 15 3 324 298 288 287 288 289 291 292 294 296 297 299 301 303 304 306 307 308 308 309 310 311 312 312 312 311 312 313 314 315 315 316 318 320
303 308 317 323 327 327 325 322 318 312 305 302 302 302 302 301 301 301 302 303 304 305 306 308 309 310 310 311 312 314 314 314 314 313 314 315 316 317 318 318 320 322 324